Previsão horária em Ceres

Hoje, 25 Julho, Domingo

Tempo Temperatura Precipitação Vento Pressão Humidade
00:00 +25°C° 0 mm 2 m/s 756 mmHg 29%
01:00 +24°C° 0 mm 2 m/s 756 mmHg 32%
02:00 +24°C° 0 mm 2 m/s 756 mmHg 34%
03:00 +22°C° 0 mm 3 m/s 756 mmHg 37%
04:00 +21°C° 0 mm 3 m/s 756 mmHg 39%
05:00 +22°C° 0 mm 3 m/s 756 mmHg 37%
06:00 +25°C° 0 mm 2 m/s 757 mmHg 34%
07:00 +26°C° 0 mm 2 m/s 757 mmHg 32%
08:00 +29°C° 0 mm 2 m/s 757 mmHg 27%
09:00 +32°C° 0 mm 2 m/s 756 mmHg 21%
10:00 +37°C° 0 mm 2 m/s 756 mmHg 16%
11:00 +39°C° 0 mm 2 m/s 756 mmHg 14%
12:00 +41°C° 0 mm 2 m/s 755 mmHg 12%
13:00 +44°C° 0 mm 3 m/s 754 mmHg 10%
14:00 +44°C° 0 mm 3 m/s 754 mmHg 10%
15:00 +44°C° 0 mm 4 m/s 753 mmHg 10%
16:00 +45°C° 0 mm 4 m/s 753 mmHg 10%
17:00 +42°C° 0 mm 5 m/s 753 mmHg 12%
18:00 +39°C° 0 mm 5 m/s 753 mmHg 15%
19:00 +35°C° 0 mm 6 m/s 753 mmHg 18%
20:00 +32°C° 0 mm 5 m/s 754 mmHg 21%
21:00 +29°C° 0 mm 4 m/s 754 mmHg 24%
22:00 +26°C° 0 mm 3 m/s 755 mmHg 28%
23:00 +25°C° 0 mm 3 m/s 755 mmHg 30%

Amanhã, 26 Julho, Segunda-feira

Tempo Temperatura Precipitação Vento Pressão Humidade
00:00 +24°C° 0 mm 2 m/s 754 mmHg 31%
01:00 +23°C° 0 mm 2 m/s 754 mmHg 33%
02:00 +23°C° 0 mm 2 m/s 754 mmHg 34%
03:00 +21°C° 0 mm 2 m/s 754 mmHg 36%
04:00 +21°C° 0 mm 2 m/s 754 mmHg 37%
05:00 +23°C° 0 mm 2 m/s 754 mmHg 35%
06:00 +24°C° 0 mm 2 m/s 755 mmHg 33%
07:00 +25°C° 0 mm 2 m/s 755 mmHg 31%
08:00 +28°C° 0 mm 2 m/s 755 mmHg 26%
09:00 +31°C° 0 mm 1 m/s 755 mmHg 21%
10:00 +34°C° 0 mm 1 m/s 755 mmHg 16%
11:00 +37°C° 0 mm 1 m/s 755 mmHg 14%
12:00 +40°C° 0 mm 1 m/s 754 mmHg 12%
13:00 +42°C° 0 mm 1 m/s 754 mmHg 10%
14:00 +42°C° 0 mm 2 m/s 753 mmHg 10%
15:00 +42°C° 0 mm 2 m/s 753 mmHg 10%
16:00 +42°C° 0 mm 2 m/s 753 mmHg 10%
17:00 +40°C° 0 mm 3 m/s 753 mmHg 12%
18:00 +37°C° 0 mm 4 m/s 754 mmHg 15%
19:00 +34°C° 0 mm 4 m/s 754 mmHg 18%
20:00 +32°C° 0 mm 4 m/s 755 mmHg 20%
21:00 +29°C° 0 mm 4 m/s 755 mmHg 23%
22:00 +28°C° 0 mm 4 m/s 756 mmHg 25%
23:00 +27°C° 0 mm 3 m/s 756 mmHg 26%

Depois de amanhã, 27 Julho, Terça-feira

Tempo Temperatura Precipitação Vento Pressão Humidade
00:00 +26°C° 0 mm 3 m/s 756 mmHg 27%
01:00 +25°C° 0 mm 2 m/s 756 mmHg 28%
02:00 +25°C° 0 mm 2 m/s 756 mmHg 29%
03:00 +24°C° 0 mm 2 m/s 756 mmHg 30%
04:00 +24°C° 0 mm 3 m/s 756 mmHg 31%
05:00 +25°C° 0 mm 2 m/s 757 mmHg 30%
06:00 +26°C° 0 mm 2 m/s 757 mmHg 28%
07:00 +27°C° 0 mm 2 m/s 757 mmHg 26%
08:00 +30°C° 0 mm 2 m/s 757 mmHg 23%
09:00 +33°C° 0 mm 3 m/s 758 mmHg 20%
10:00 +36°C° 0 mm 3 m/s 758 mmHg 16%
11:00 +38°C° 0 mm 3 m/s 757 mmHg 15%
12:00 +40°C° 0 mm 3 m/s 757 mmHg 14%
13:00 +43°C° 0 mm 3 m/s 756 mmHg 13%
14:00 +43°C° 0 mm 3 m/s 756 mmHg 13%
15:00 +44°C° 0 mm 3 m/s 755 mmHg 13%
16:00 +44°C° 0 mm 3 m/s 755 mmHg 13%
17:00 +42°C° 0 mm 3 m/s 755 mmHg 14%
18:00 +39°C° 0 mm 3 m/s 755 mmHg 16%
19:00 +37°C° 0 mm 3 m/s 755 mmHg 18%
20:00 +35°C° 0 mm 3 m/s 755 mmHg 22%
21:00 +31°C° 0 mm 3 m/s 756 mmHg 26%
22:00 +29°C° 0 mm 3 m/s 757 mmHg 29%
23:00 +28°C° 0 mm 3 m/s 757 mmHg 32%

28 Julho, Quarta-feira

Tempo Temperatura Precipitação Vento Pressão Humidade
00:00 +27°C° 0 mm 2 m/s 757 mmHg 34%
01:00 +26°C° 0 mm 2 m/s 757 mmHg 37%
02:00 +25°C° 0.2 mm 2 m/s 757 mmHg 39%
03:00 +25°C° 0.2 mm 1 m/s 757 mmHg 42%
04:00 +25°C° 0.2 mm 1 m/s 757 mmHg 44%
05:00 +26°C° 0.1 mm 1 m/s 758 mmHg 43%
06:00 +27°C° 0.1 mm 1 m/s 758 mmHg 42%
07:00 +28°C° 0.1 mm 1 m/s 759 mmHg 40%
08:00 +30°C° 0 mm 1 m/s 759 mmHg 35%
09:00 +32°C° 0 mm 1 m/s 759 mmHg 30%
10:00 +36°C° 0 mm 2 m/s 759 mmHg 25%
11:00 +37°C° 0 mm 2 m/s 758 mmHg 22%
12:00 +39°C° 0 mm 2 m/s 758 mmHg 20%
13:00 +42°C° 0 mm 3 m/s 757 mmHg 17%
14:00 +43°C° 0 mm 4 m/s 757 mmHg 16%
15:00 +44°C° 0 mm 4 m/s 756 mmHg 15%
16:00 +45°C° 0 mm 5 m/s 756 mmHg 14%
17:00 +42°C° 0 mm 5 m/s 756 mmHg 17%
18:00 +39°C° 0 mm 5 m/s 756 mmHg 20%
19:00 +36°C° 0 mm 5 m/s 756 mmHg 23%
20:00 +34°C° 0 mm 4 m/s 756 mmHg 27%
21:00 +30°C° 0 mm 3 m/s 757 mmHg 32%
22:00 +28°C° 0 mm 3 m/s 757 mmHg 36%
23:00 +27°C° 0 mm 3 m/s 757 mmHg 39%

29 Julho, Quinta-feira

Tempo Temperatura Precipitação Vento Pressão Humidade
00:00 +26°C° 0 mm 3 m/s 757 mmHg 41%
01:00 +25°C° 0 mm 3 m/s 757 mmHg 44%
02:00 +25°C° 0 mm 3 m/s 757 mmHg 45%
03:00 +24°C° 0 mm 3 m/s 757 mmHg 46%
04:00 +24°C° 0 mm 2 m/s 757 mmHg 48%
05:00 +25°C° 0 mm 3 m/s 757 mmHg 44%
06:00 +27°C° 0 mm 3 m/s 757 mmHg 40%
07:00 +28°C° 0 mm 3 m/s 758 mmHg 37%
08:00 +31°C° 0 mm 3 m/s 757 mmHg 32%
09:00 +35°C° 0 mm 3 m/s 757 mmHg 27%
10:00 +38°C° 0 mm 3 m/s 757 mmHg 22%
11:00 +42°C° 0 mm 4 m/s 756 mmHg 19%
12:00 +44°C° 0 mm 4 m/s 756 mmHg 16%
13:00 +47°C° 0 mm 4 m/s 755 mmHg 13%
14:00 +48°C° 0 mm 4 m/s 754 mmHg 12%
15:00 +48°C° 0 mm 4 m/s 754 mmHg 11%
16:00 +49°C° 0 mm 4 m/s 753 mmHg 10%
17:00 +45°C° 0 mm 4 m/s 753 mmHg 12%
18:00 +43°C° 0 mm 5 m/s 753 mmHg 15%
19:00 +41°C° 0 mm 5 m/s 753 mmHg 18%
20:00 +37°C° 0 mm 4 m/s 754 mmHg 21%
21:00 +34°C° 0 mm 3 m/s 754 mmHg 24%
22:00 +31°C° 0 mm 3 m/s 755 mmHg 28%
23:00 +30°C° 0 mm 2 m/s 754 mmHg 29%

30 Julho, Sexta-feira

Tempo Temperatura Precipitação Vento Pressão Humidade
00:00 +29°C° 0 mm 2 m/s 754 mmHg 30%
01:00 +28°C° 0 mm 2 m/s 754 mmHg 31%
02:00 +28°C° 0 mm 2 m/s 754 mmHg 31%
03:00 +27°C° 0 mm 2 m/s 754 mmHg 32%
04:00 +27°C° 0 mm 2 m/s 754 mmHg 32%
05:00 +28°C° 0 mm 2 m/s 754 mmHg 30%
06:00 +30°C° 0 mm 2 m/s 755 mmHg 27%
07:00 +31°C° 0 mm 2 m/s 755 mmHg 25%
08:00 +35°C° 0 mm 2 m/s 755 mmHg 21%
09:00 +38°C° 0 mm 3 m/s 755 mmHg 17%
10:00 +43°C° 0 mm 3 m/s 755 mmHg 13%
11:00 +45°C° 0 mm 3 m/s 754 mmHg 12%
12:00 +47°C° 0 mm 3 m/s 754 mmHg 10%
13:00 +50°C° 0 mm 4 m/s 753 mmHg 8%
14:00 +50°C° 0 mm 4 m/s 753 mmHg 8%
15:00 +50°C° 0 mm 4 m/s 752 mmHg 8%
16:00 +50°C° 0 mm 4 m/s 752 mmHg 8%
17:00 +48°C° 0 mm 4 m/s 752 mmHg 10%
18:00 +45°C° 0 mm 5 m/s 753 mmHg 12%
19:00 +41°C° 0 mm 5 m/s 753 mmHg 15%
20:00 +37°C° 0 mm 4 m/s 753 mmHg 18%
21:00 +34°C° 0 mm 3 m/s 754 mmHg 21%
22:00 +31°C° 0 mm 3 m/s 754 mmHg 23%
23:00 +30°C° 0 mm 3 m/s 755 mmHg 25%
Mostrar mais

Necessitamos do seu Consentimento

A Meteoprog e os seus Fornecedores de Serviços podem armazenar e aceder a dados pessoais como cookies, identificadores do dispositivo ou outras tecnologias semelhantes existentes no seu dispositivo e processar estes dados para personalizar conteúdos e anúncios, assim como funcionalidades nas redes sociais e análise de tráfego.

  • Armazenar e/ou aceder a informações no seu dispositivo

    Os cookies, identificadores do dispositivo ou outras informações podem ser armazenados ou acedidos no seu dispositivo, para os fins acima indicados.

  • Anúncios e conteúdos personalizados, medição de anúncios e conteúdos, dados sobre o público-alvo e desenvolvimento de produtos

    Os anúncios e os conteúdos podem ser personalizados com base num perfil. Podem ser adicionados dados adicionais para uma maior personalização dos anúncios e dos conteúdos. A eficácia dos anúncios e dos conteúdos pode ser medida. Podem ser obtidas informações sobre o público que visualizou os anúncios e os conteúdos. Estes dados podem ser usados para desenvolver ou melhorar sistemas, softwares ou a experiência do utilizador.

Ao clicar em "Eu concordo”, permitirá o uso de cookies, identificadores do dispositivo e web beacons mencionados ou outras tecnologias semelhantes. As configurações do navegador do seu dispositivo podem ser alteradas.

Para certos fins, podem ser invocados interesses legítimos ao invés de consentimento. Pode ler mais informação sobre este assunto na nossa Política de Privacidade e Cookies.